Orbcomm FM112

operational
NORAD ID: 41184 Int'l Des: 2015-081 Owner: ORBC Country: US Constellation: orbcomm
LEOCIRCULAR

About Orbcomm FM112

Description loading...

Live Position

Loading 3D Globe...

Upcoming Passes

Altitude History

Altitude vs Time

uPlot chart will show altitude changes over time

Two-Line Element Set

1 41184U 15081F 25298.34297799 .00001243 00000-0 30126-3 0 9994
2 41184 46.9993 300.3903 0002115 246.2524 113.8140 14.58505322524668
Epoch: Oct 25, 2025 • Age: 16 hours

Current Status

Altitude 711.6 km
Velocity 7.50 km/s
Sub-Earth Point -45.61°S, 173.59°W
Launch Date Dec 22, 2015
Age 9.8 years
Type other

Technical Details

Classification Payload
Mass 172.00 kg
Dry Mass 158.00 kg
Total Mass 172.00 kg
Length 1.00 m
Diameter 0.50 m
Span 13.00 m
Shape Box+pan+ant
Manufacturer SNVL
Bus Type SN-100A
Phase Status In Orbit
Owner/State ORBC/US

Large Constellations

Loading constellations...